Hourly Data Report for June 08, 2004

SHERBROOKE A
QUEBEC

45°26'00.000" N
71°41'00.000" W
241.40 m
7028124
71610
YSC

Download Data

Hourly Data (June 2004)
Hourly Data Report for June 8, 2004
TIME
LST
Temp Definition
°C
Dew Point Definition
°C
Rel Hum Definition
%
Precip. Amount Definition
mm

Wind Dir Definition
10's deg

Wind Spd Definition
km/h
Visibility Definition
km
Stn Press Definition
kPa
Hmdx Definition


Wind Chill Definition


Weather Definition


00:00 10.5 9.2 92     0 15.0 99.00      
01:00 8.9 7.9 93   11 4 12.9 99.04      
02:00 7.9 7.0 94   7 4 8.0 99.06      
03:00 8.6 7.8 95   8 6 8.0 99.10      
04:00 10.1 8.7 91   8 7 15.0 99.06      
05:00 10.9 9.3 90   8 4 15.0 99.03      
06:00 12.7 10.6 87     0 15.0 99.02      
07:00 15.5 11.7 78     0 24.1 99.03     Mainly Clear
08:00 19.5 13.9 70   22 6 24.1 99.03     Mainly Clear
09:00 23.2 16.0 64   24 11 19.3 99.02 28   Mainly Clear
10:00 24.6 17.1 63   23 13 16.1 98.96 30   Cloudy
11:00 25.5 16.7 58   27 22 12.9 98.95 31   Cloudy
12:00 26.1 16.5 55   26 20 12.9 98.89 31   Cloudy
13:00 26.8 16.9 55   22 19 12.9 98.76 32   Mostly Cloudy
14:00 27.4 16.3 51   23 20 16.1 98.67 32   Mostly Cloudy
15:00 27.9 16.5 50   23 22 12.9 98.57 33   Mostly Cloudy
16:00 28.0 16.3 49   24 19 16.1 98.50 33   Mostly Cloudy
17:00 27.9 15.5 47   23 19 12.9 98.47 32    
18:00 27.1 15.6 49   23 15 12.9 98.42 31    
19:00 25.3 15.2 54   24 13 12.9 98.40 29    
20:00 22.8 14.4 59   25 6 12.9 98.44 26    
21:00 18.4 14.3 77   16 4 9.7 98.49      
22:00 20.5 13.9 66   19 7 9.7 98.44      
23:00 21.3 13.7 62   22 9 11.3 98.37      

Notes on Data Quality.

Legend

  • E = Estimated
  • M = Missing
  • NA = Not Available*
  • [empty] = Indicates an unobserved value
Date modified: